Location: ???????
(41.4722°N, 22.8048°E)
Time: 02:26:29
(UTC+00:00)

Daily predictions for brighter satellites

Satellite Brightness Start Highest point End
(mag) Time Altitude Azimuth Time Altitude Azimuth Time Altitude Azimuth
ADEOS II 3.1 00:00:55 10° NNE 00:05:49 39° E 00:07:44 29° SE
IDEFIX/ARIANE 42P 3.9 00:02:05 10° NNE 00:06:48 33° E 00:09:04 23° SE
Cosmos 2084 Rocket 3.3 00:12:47 64° NW 00:12:47 64° NW 00:16:26 10° NNE
USA 306 4.3 00:11:52 26° WNW 00:13:15 32° NNW 00:17:02 10° NE
Thor Agena Rocket 4.0 00:09:21 10° N 00:14:25 48° WNW 00:15:34 41° WSW
USA 307 4.2 00:15:20 27° WNW 00:16:40 34° NNW 00:20:31 10° NE
Cosmos 2369 Rocket 4.3 00:12:43 10° N 00:17:20 26° NE 00:21:56 10° ESE
NPP 3.6 00:12:00 10° NNE 00:17:26 78° ESE 00:19:05 46° S
SL-16 R/B 2.2 00:16:07 48° S 00:17:45 78° ESE 00:23:26 10° NNE
ERBS 4.1 00:22:52 22° NW 00:22:53 22° NW 00:25:23 10° NNE
COSMOS 2455 3.3 00:21:40 34° SSE 00:23:55 51° ESE 00:29:45 10° NE
CZ-4 R/B 3.7 00:19:58 10° N 00:24:38 72° WNW 00:25:30 56° SW
ATLAS 5 CENTAUR R/B 3.9 00:19:15 10° NW 00:24:39 24° W 00:24:39 24° W
Cosmos 1455 Rocket 3.4 00:21:47 10° NNW 00:26:04 48° W 00:26:09 48° W
CZ-4C R/B 3.9 00:20:35 10° NW 00:27:04 30° WSW 00:27:53 29° WSW
Meteor 1-28 Rocket 4.1 00:28:45 28° SE 00:30:17 45° ENE 00:33:51 10° N
EO 1 Del DPAF 3.9 00:27:20 10° NNE 00:30:42 41° E 00:31:12 38° ESE
Cosmos 1536 Rocket 3.8 00:30:54 41° SSE 00:32:13 62° E 00:36:34 10° NNE
Nadezhda 1 Rocket 4.2 00:30:27 27° SSE 00:34:01 68° E 00:40:17 10° NNE
Meteor 1-24 Rocket 3.8 00:34:53 41° SW 00:36:39 59° WNW 00:42:05 10° N
Cosmos 1975 Rocket 4.2 00:39:39 28° W 00:40:06 29° WNW 00:43:59 10° NNW
Meteor 2-10 Rocket 4.5 00:35:33 10° NNW 00:40:27 31° W 00:41:17 30° WSW
MSX 4.4 00:36:09 10° NNE 00:41:48 54° E 00:45:22 23° S
UNK 3.6 00:40:51 41° S 00:42:25 77° WSW 00:47:02 10° NNW
MOS 1 Rocket 2.9 00:44:05 41° S 00:45:33 82° W 00:49:51 10° NNW
Cosmos 1025 Rocket 4.1 00:47:03 28° W 00:47:33 29° WNW 00:51:20 10° NNW
YAOGAN 11 4.0 00:46:10 40° S 00:47:40 72° WSW 00:52:10 10° NNW
Cosmos 1455 2.1 00:48:32 10° NNW 00:52:11 59° W 00:52:38 54° SW
Cosmos 1269 Rocket 4.3 00:48:27 10° NNW 00:53:28 46° WSW 00:55:07 35° SSW
Cosmos 1271 Rocket 2.8 00:51:55 10° N 00:55:44 73° E 00:57:44 27° SSE
CZ-2D R/B 2.9 00:55:23 10° N 01:00:17 37° WNW 01:02:28 26° WSW
Lacrosse 5 2.6 00:58:31 24° W 01:01:16 46° NW 01:06:12 10° NE
Cosmos 2154 Rocket 4.0 01:00:11 10° NNW 01:06:30 71° W 01:11:15 18° S
Helios 1B rocket 3.9 01:05:52 10° NNE 01:09:32 32° E 01:12:57 11° SSE
Cosmos 1943 3.7 01:08:53 19° S 01:12:52 57° ESE 01:18:26 10° NNE
Cosmos 2237 Rocket 4.3 01:12:02 10° W 01:15:14 15° NW 01:18:27 10° NNW
SL-16 R/B 3.1 01:14:42 24° SSW 01:17:42 37° W 01:23:27 10° NNW
Helios 1A 3.2 01:16:52 27° SSW 01:18:54 51° W 01:23:01 10° NNW
BREEZE-M DEB (TANK) 4.3 01:17:31 18° SSE 01:19:05 26° ESE 01:24:24 10° ENE
Cosmos 1328 4.3 01:16:43 17° S 01:19:36 56° E 01:23:30 10° NNE
Lacrosse 5 rocket 2.3 01:21:54 20° W 01:24:05 36° NW 01:27:52 10° NNE
Cosmos 1140 Rocket 4.4 01:19:04 10° N 01:24:12 52° ENE 01:29:18 10° SE
Resurs 1-4 Rocket 3.7 01:25:23 10° NNW 01:29:11 21° WNW 01:31:56 14° W
NOSS 3-3 (A) 3.8 01:26:08 21° SSW 01:30:00 82° ESE 01:36:20 10° NE
NOSS 3-3 (C) 3.8 01:26:14 21° SSW 01:30:06 81° ESE 01:36:26 10° NE
Lacrosse 4 Rocket 4.0 01:28:33 10° SE 01:30:59 15° ESE 01:33:25 10° ENE
SeaSat 1 4.5 01:27:27 10° NE 01:31:16 22° ESE 01:35:04 10° SSE
Cosmos 1892 Rocket 4.0 01:27:31 11° S 01:31:38 62° E 01:36:05 10° NNE
Cosmos 1943 Rocket 3.0 01:31:18 10° NW 01:36:07 29° WSW 01:39:28 17° SSW
Cosmos 2297 4.2 01:30:56 10° NW 01:36:13 38° WSW 01:41:27 10° S
Cosmos 2263 4.4 01:30:50 10° NNW 01:36:32 77° ENE 01:42:16 10° SSE
FENGYUN 3A 4.3 01:32:11 10° NNE 01:37:28 54° E 01:42:43 10° S
Cosmos 1726 Rocket 3.7 01:33:03 10° N 01:37:29 78° E 01:41:51 10° SSE
Cosmos 1703 4.1 01:35:52 22° SW 01:37:40 34° WNW 01:41:18 10° N
ADEOS II 3.3 01:40:56 10° N 01:45:18 27° WNW 01:48:40 14° WSW
MOS 1-B Rocket 3.8 01:40:31 10° SSE 01:46:08 88° ENE 01:51:53 10° NNW
IDEFIX/ARIANE 42P 3.6 01:41:40 10° N 01:46:18 32° WNW 01:49:51 15° WSW
SL-24 DEB 4.4 01:42:07 10° S 01:46:50 78° E 01:51:34 10° N
ARIANE 5 R/B 3.5 01:44:04 10° NNE 01:48:54 44° E 01:53:40 10° S
Cosmos 1825 4.4 01:46:07 10° SE 01:49:06 23° E 01:52:06 10° NE
DNEPR-1 R/B 3.5 01:48:16 17° SW 01:51:27 81° WNW 01:56:02 10° NNE
Cosmos 2218 Rocket 4.1 01:45:21 10° N 01:51:37 84° E 01:57:57 10° S
CBERS-1 4.0 01:46:43 10° N 01:51:49 73° WNW 01:56:47 11° SSW
GPS 2-04 Rocket1 4.0 01:50:27 16° SSW 01:52:01 21° SSE 01:54:44 10° ESE
Cosmos 2056 Rocket 3.7 01:53:17 10° S 01:58:25 73° ESE 02:03:40 10° NNE
CZ-3 R/B 4.4 01:12:44 10° WSW 02:01:00 55° S 02:12:52 10° ESE
Cosmos 2369 Rocket 2.4 01:56:14 10° NW 02:01:36 48° WSW 02:06:55 10° S
SL-16 R/B 4.0 01:58:45 10° W 02:02:32 18° NW 02:06:20 10° N
IRS-1D 4.4 01:58:28 10° N 02:03:21 37° WNW 02:07:54 11° SW
Cosmos 2228 4.2 02:00:39 10° NNW 02:04:15 25° W 02:07:33 11° SW
Cosmos 2181 Rocket 4.0 01:58:41 10° SSW 02:04:54 69° W 02:11:04 10° N
Cosmos 1892 2.8 02:01:23 10° S 02:05:10 76° E 02:08:57 10° N
OAO 2 Rocket 4.2 02:02:22 13° SW 02:06:10 32° SSE 02:10:32 10° ESE
Cosmos 2251 Rocket 4.0 02:02:06 10° NW 02:06:57 38° WSW 02:11:48 10° SSW
Cosmos 1959 Rocket 4.5 02:01:31 10° N 02:07:47 76° W 02:13:54 10° S
Cosmos 2098 4.4 02:05:59 10° N 02:09:01 71° E 02:12:01 10° SSE
COSMOS 2455 4.1 02:04:53 10° WSW 02:10:06 30° NW 02:15:21 10° NNE
Cosmos 1656 Rocket 3.8 02:05:46 10° NW 02:10:59 50° WSW 02:16:11 10° S
IRS-P3 4.2 02:06:54 10° NNE 02:12:17 83° ESE 02:17:37 10° SSW
Cosmos 2058 Rocket 3.0 02:07:57 10° N 02:12:20 76° W 02:16:40 10° S
Cosmos 1190 Rocket 4.1 02:09:20 10° NNW 02:14:39 88° WSW 02:19:57 10° SSE
Cosmos 1626 Rocket 4.0 02:12:31 10° S 02:16:52 63° E 02:21:13 10° NNE
Cosmos 1408 2.7 02:15:30 10° SSW 02:19:04 58° W 02:22:40 10° N
[s.n.52708] 2.6 02:16:55 11° SW 02:19:37 87° NNW 02:22:26 10° NE
[s.n.52707] 2.6 02:17:02 11° SW 02:19:43 86° NW 02:22:33 10° NE
[s.n.52703] 2.6 02:17:08 11° SW 02:19:50 86° NNW 02:22:40 10° NE
[s.n.52705] 2.6 02:17:14 11° SW 02:19:56 86° NW 02:22:46 10° NE
[s.n.52706] 2.6 02:17:21 11° SW 02:20:03 86° NW 02:22:52 10° NE
[s.n.52701] 2.6 02:17:27 11° SW 02:20:09 85° NW 02:22:59 10° NE
[s.n.52704] 2.6 02:17:33 11° SW 02:20:16 85° NW 02:23:06 10° NE
[s.n.52699] 2.6 02:17:40 11° SW 02:20:23 85° NW 02:23:13 10° NE
[s.n.52702] 2.6 02:17:46 11° SW 02:20:29 85° NW 02:23:20 10° NE
[s.n.52697] 2.6 02:17:53 11° SW 02:20:37 84° NNW 02:23:26 10° NE
[s.n.52700] 2.6 02:17:59 11° SW 02:20:42 84° NW 02:23:32 10° NE
[s.n.52695] 2.6 02:18:05 11° SW 02:20:49 84° NW 02:23:40 10° NE
[s.n.52698] 2.6 02:18:12 11° SW 02:20:56 84° NW 02:23:46 10° NE
[s.n.52693] 2.6 02:18:18 11° SW 02:21:03 84° NW 02:23:53 10° NE
[s.n.52696] 2.6 02:18:25 11° SW 02:21:09 83° NW 02:24:00 10° NE
[s.n.52691] 2.6 02:18:31 10° SW 02:21:16 83° NW 02:24:07 10° NE
[s.n.52689] 2.6 02:18:37 10° SW 02:21:22 83° NW 02:24:13 10° NE
[s.n.52694] 2.6 02:18:44 10° SW 02:21:29 83° NW 02:24:20 10° NE
[s.n.52692] 2.6 02:18:50 10° SW 02:21:36 82° NW 02:24:26 10° NE
[s.n.52687] 2.6 02:18:57 10° SW 02:21:43 82° NW 02:24:33 10° NE
[s.n.52685] 2.6 02:19:03 10° SW 02:21:49 82° NW 02:24:40 10° NE
[s.n.52690] 2.6 02:19:09 10° SW 02:21:56 82° NW 02:24:46 10° NE
[s.n.52688] 2.6 02:19:16 10° SW 02:22:02 81° NW 02:24:53 10° NE
[s.n.52683] 2.6 02:19:22 10° SW 02:22:10 81° NW 02:25:00 10° NE
[s.n.52686] 2.6 02:19:29 10° SW 02:22:16 81° NW 02:25:07 10° NE
[s.n.52681] 2.6 02:19:36 10° SW 02:22:23 81° NW 02:25:14 10° NE
[s.n.52679] 2.6 02:19:42 10° SW 02:22:30 80° NW 02:25:21 10° NE
[s.n.52684] 2.6 02:19:48 10° SW 02:22:37 80° NW 02:25:28 10° NE
[s.n.52682] 2.6 02:19:55 10° SW 02:22:43 80° NW 02:25:33 10° NE
[s.n.52677] 2.6 02:20:02 10° SW 02:22:51 80° NW 02:25:41 10° NE
[s.n.52680] 2.6 02:20:08 10° SW 02:22:57 80° NW 02:25:48 10° NE
[s.n.52675] 2.6 02:20:15 10° SW 02:23:04 79° NW 02:25:54 10° NE
[s.n.52678] 2.6 02:20:21 10° SW 02:23:10 79° NW 02:26:01 10° NE
[s.n.52673] 2.6 02:20:29 10° SW 02:23:19 79° NW 02:26:09 10° NE
[s.n.52676] 2.6 02:20:36 10° SW 02:23:25 79° NW 02:26:15 10° NE
[s.n.52671] 2.6 02:20:43 10° SW 02:23:32 78° NW 02:26:22 10° NE
[s.n.52669] 2.6 02:20:50 10° SW 02:23:38 78° NW 02:26:29 10° NE
[s.n.52674] 2.6 02:20:56 10° SW 02:23:45 78° NW 02:26:36 10° NE
[s.n.52672] 2.6 02:21:02 10° SW 02:23:52 78° NW 02:26:43 10° NE
[s.n.52667] 2.6 02:21:10 10° SW 02:24:00 77° NW 02:26:50 10° NE
[s.n.52665] 2.6 02:21:17 10° SW 02:24:06 77° NW 02:26:57 10° NE
[s.n.52670] 2.6 02:21:24 10° SW 02:24:14 77° NW 02:27:04 10° NE
[s.n.52668] 2.6 02:21:31 10° SW 02:24:21 77° NW 02:27:12 10° NE
[s.n.52666] 2.6 02:21:38 10° SW 02:24:28 76° NW 02:27:18 10° NE
[s.n.52663] 2.6 02:21:44 10° SW 02:24:34 76° NW 02:27:25 10° NE
[s.n.52662] 2.6 02:21:52 10° SW 02:24:41 76° NW 02:27:32 10° NE
[s.n.52664] 2.6 02:21:59 10° SW 02:24:48 76° NW 02:27:39 10° NE
[s.n.52661] 2.6 02:22:07 10° SW 02:24:55 75° NW 02:27:46 10° NE
[s.n.52660] 2.6 02:22:13 10° SW 02:25:02 75° NW 02:27:53 10° NE
[s.n.52656] 2.7 02:22:20 10° SW 02:25:10 75° NW 02:28:00 10° NE
[s.n.52658] 2.7 02:22:27 10° SW 02:25:17 75° NW 02:28:08 10° NE
[s.n.52659] 2.7 02:22:34 10° SW 02:25:23 75° NW 02:28:15 10° NE
Cosmos 1603 4.3 02:20:06 10° SW 02:25:25 43° WNW 02:30:49 10° NNE
[s.n.52657] 2.7 02:22:42 10° SW 02:25:31 74° NW 02:28:22 10° NE
PAYLOAD A 4.0 02:24:06 10° N 02:28:46 62° WNW 02:33:32 10° SSW
ATLAS 2A CENTAUR R/B 4.2 02:18:11 10° WSW 02:30:30 30° SSW 02:36:09 10° SE
